Retour au catalogue

COSMOS 2239

ActifMilitairePO
NORAD 22590·PAYLOAD·🇷🇺 Russia

Lancé Apr 1, 1993 depuis Plesetsk Cosmodrome

Loading…

Prochains Passages (prochaines 24 heures)

TLE

FraisSource: Space-Track

Époque: Sep 14, 2026, 05:52 UTC

1 22590U 93020A   26257.24498832  .00000036  00000-0  21489-4 0  9991
2 22590  82.9272  74.6012 0024003  47.1777 126.3148 13.75640851679021

Suivez COSMOS 2239 en temps réel avec AllMySat

Download on the App Store